Regional Weather Roundup
Issued by NWS Kansas City/Pleasant Hill, MO

Home | Current Version | Previous Version | Text Only | Print | Product List | Glossary On
Versions: 1 2 3 4 5 6 7 8 9 10 11 12 13 14 15 16 17 18 19 20 21 22 23 24 25 26 27 28 29 30 31 32 33 34 35 36 37 38 39 40 41 42 43 44 45 46 47 48 49 50
000
ASUS43 KEAX 181011
RWREAX

WEATHER ROUNDUP FOR EASTERN KANSAS AND NORTHWEST MISSOURI
NATIONAL WEATHER SERVICE KANSAS CITY/PLEASANT HILL MO
400 AM CST THU DEC 18 2014

KSZ040-057-103>105-MOZ028-029-037-043-181100-
...KANSAS CITY METROPOLITAN AREA...

CITY           SKY/WX    TMP DP  RH WIND       PRES   REMARKS
K.C. INTL      LGT SNOW  28  26  92 E7        30.22S VSB 1   WCI  21
K.C. DOWNTOWN  LGT SNOW  29  27  92 NE7       30.23F FOG     WCI  22
LEES SUMMIT    LGT SNOW  28  26  92 E6        30.22F FOG     WCI  22
OLATHE - IXD   LGT SNOW  28  26  92 E7        30.20F FOG     WCI  21
OLATHE - OJC   LGT SNOW  28  27  96 E7        30.19F FOG     WCI  21
LAWRENCE       LGT SNOW  28  26  92 E7        30.21F FOG     WCI  21

$$

MOZ001>008-011>017-020>025-030>033-038>040-044>046-053-054-181100-
...NORTHERN AND CENTRAL MISSOURI...

CITY           SKY/WX    TMP DP  RH WIND       PRES   REMARKS
ST. JOSEPH     LGT SNOW  28  26  92 E3        30.24F FOG
MOSBY          LGT SNOW  28  28 100 CALM      30.24F
WARRENSBURG    LGT SNOW  30  28  93 NE3       30.24F
WHITEMAN AFB   LGT SNOW  29  28  94 NE2       30.23S FOG
CLINTON        LGT SNOW  32  32 100 NE6       30.23F WCI  26
SEDALIA        LGT SNOW  31  29  92 CALM      30.24S FOG
WARSAW         NOT AVBL
MARSHALL       LGT SNOW  32  30  93 E6        30.26R WCI  26
CHILLICOTHE      N/A     28  25  88 CALM      30.27F
KIRKSVILLE     CLOUDY    26  21  81 NE7       30.26F WCI  18

$$

MOZ041-047>049-056>058-063>065-088>090-097-181100-
...EASTERN AND SOUTHERN MISSOURI...

CITY           SKY/WX    TMP DP  RH WIND       PRES   REMARKS
ST. LOUIS INTL FLURRIES  30  23  75 E3        30.28F
SPIRIT OF STL  CLOUDY   N/A N/A N/A NE6       30.27F
COLUMBIA       LGT SNOW  29  27  92 NE12      30.23F FOG     WCI  19
JEFFERSON CITY CLOUDY    32  27  81 NE3       30.26F
MEXICO         LGT SNOW  28  28 100 E3        30.26  VSB 1
HANNIBAL       CLOUDY    28  21  74 CALM      30.27F
ROLLA          LGT SNOW  30  28  92 NE5       30.20S FOG     WCI  25
LEBANON        CLOUDY    32  32 100 E3        30.19F FOG
OSAGE BEACH    CLOUDY    30  28  93 NE6       30.22S WCI  24
SPRINGFIELD    MIX PCPN  33  32  96 SE6       30.16S FOG     WCI  28
BRANSON        CLOUDY    32  32 100 SE5       30.17S WCI  27
JOPLIN         LGT RAIN  34  33  96 E6        30.17F FOG     WCI  29
WEST PLAINS    CLOUDY    33  31  92 SE6       30.20F FOG     WCI  28

$$

IAZ060-094-KSZ022-034>040-054-083-096-NEZ052-066-093-181100-
...KANSAS...SOUTHEAST NEBRASKA AND IOWA...

CITY           SKY/WX    TMP DP  RH WIND       PRES   REMARKS
TOPEKA         LGT SNOW  29  27  92 E7        30.21F FOG     WCI  22
MANHATTAN      LGT SNOW  27  26  96 NE5       30.19S FOG     WCI  22
EMPORIA        LGT SNOW  27  27 100 E7        30.16S FOG     WCI  19
CHANUTE        LGT SNOW  31  30  96 E6        30.17F FOG     WCI  25
WICHITA        LGT SNOW  32  29  88 SE7       30.13F FOG     WCI  26
OMAHA          CLOUDY    28  20  71 E6        30.25S WCI  22
LINCOLN        LGT SNOW  26  22  84 E6        30.23S FOG     WCI  19
FALLS CITY     LGT SNOW  27  25  92 E3        30.22S VSB 3/4
LAMONI         CLOUDY    25  19  78 E6        30.23F WCI  18
DES MOINES     CLOUDY    23  16  74 E3        30.28S

$$




USA.gov is the U.S. government's official web portal to all federal, state and local government web resources and services.